Location: Lecco
(45.8566°N, 9.3977°E)
Time: 13:05:16
(UTC+02:00)

Vanguard 2 Rocket - Pass Details

Date: 22 August 2020
Orbit: 554 x 3326 km, 32.9° (Epoch: 24 September)

Event Time Altitude Azimuth Distance (km) Brightness Sun altitude
Rises 17:46:48 0° 242° (WSW) 2,771 10.6 25.3°
Reaches altitude 10° 17:49:23 10° 222° (SW) 1,996 9.6 24.8°
Maximum altitude 17:52:30 19° 177° (S) 1,715 8.5 24.3°
Drops below altitude 10° 17:56:25 10° 135° (SE) 2,599 9.0 23.6°
Sets 18:00:27 0° 118° (ESE) 4,004 9.7 22.9°
